User: anonymous   Login
Location: Unspecified
(0.0000°N, 0.0000°E)
Time: 04:07:40
(UTC+00:00)
Language:

Nadezhda 1 - Orbit

View from above orbital plane
View from above orbital plane
View from above satellite
View from above satellite

Ground track
Ground track

The orbit data is extracted from the following two-line orbital elements,

1 20103U 89050A   18344.73952499  .00000036  00000-0  21618-4 0  9997
2 20103  82.9592 168.9302 0036945 203.9700 275.5572 13.74571807476520
Epoch (UTC): 10 December 2018 17:44:54
Eccentricity: 0.0036945
inclination: 82.9592°
perigee height: 956 km
apogee height: 1010 km
right ascension of ascending node: 168.9302°
argument of perigee: 203.9700°
revolutions per day: 13.74571807
mean anomaly at epoch: 275.5572°
orbit number at epoch: 47652

The dashed part of the orbit path shows where the satellite is in the earth's shadow,  

DLR